Theta_e
317 317 318 319 321 321 324 326 326 327 327 325 326 326 324 324 325 325 325 324 325 325 324 323 324 322 323 325 327 331 334 336 335 332 333 336 334 338 339 334 335 338 340 341 341 341 337 335 336 335 329 329 330 329 328 324 318 313 317 325 331 333 335 335 335 335 335 334 332 330 328 326 323 320 319 318 319 319 322 325 324 325 326 327 328 332 334 334 334 334 334 332 329 325 323 322 320
312 313 315 316 319 321 326 327 324 324 323 323 326 327 325 325 325 324 322 321 322 323 322 323 324 323 324 326 327 331 335 337 337 338 338 337 338 339 338 336 338 339 340 341 340 340 338 335 336 333 329 334 333 331 332 327 324 319 314 317 326 330 332 334 334 335 334 333 331 329 327 324 322 321 318 316 316 316 316 319 322 325 327 327 326 329 331 332 333 333 333 330 327 324 322 321 321
308 310 311 314 319 322 325 325 322 322 320 321 325 326 323 324 323 320 319 319 320 320 322 323 323 325 327 329 330 333 338 338 338 338 338 339 339 338 339 337 338 339 340 340 340 339 337 335 334 330 332 337 335 334 334 331 329 326 319 311 317 325 328 331 332 334 334 332 329 327 325 322 321 317 315 315 315 314 313 315 321 324 325 326 326 327 329 330 332 330 328 325 323 321 320 322 322
306 307 309 315 322 323 324 323 322 321 320 320 324 324 320 319 318 317 318 318 319 320 322 324 324 327 332 336 335 336 339 339 338 338 338 339 338 337 339 337 338 339 339 339 340 338 336 336 331 328 335 338 337 336 334 333 331 330 326 314 311 316 322 326 330 332 331 330 328 326 324 322 318 315 318 319 316 313 311 312 317 319 320 323 325 325 327 326 326 324 322 321 320 320 322 323 323
306 306 309 315 322 324 325 324 323 322 321 323 326 323 317 316 315 316 317 317 319 320 321 322 323 325 331 338 338 338 338 338 338 338 338 339 338 338 338 336 338 338 338 339 340 337 335 334 326 328 336 337 338 337 335 333 332 331 330 326 318 313 314 317 323 328 329 329 328 327 324 321 316 319 325 321 317 315 311 309 310 313 314 317 321 322 322 321 321 322 321 321 322 324 325 324 323
305 307 311 316 322 325 324 321 322 323 321 322 324 320 315 314 314 314 316 318 319 320 320 319 321 322 329 336 337 337 335 337 338 338 339 338 338 339 337 336 338 338 338 338 339 337 335 330 323 330 337 337 339 338 337 334 332 332 330 330 326 319 316 314 314 318 325 328 327 327 323 319 319 325 328 321 323 324 319 316 311 311 314 316 319 322 322 323 326 326 324 326 327 326 324 322 322
306 312 317 318 321 324 323 320 322 324 319 316 317 314 313 313 312 314 316 319 319 320 319 318 319 322 327 330 334 335 334 336 337 338 339 338 338 339 338 336 338 338 338 338 338 335 334 329 323 332 337 336 338 338 338 335 332 331 328 325 323 320 318 319 314 310 321 328 327 326 321 319 323 327 329 326 328 330 329 328 321 317 321 323 325 327 328 330 330 329 327 326 325 323 320 319 320
309 317 320 318 320 323 323 322 324 324 317 312 312 311 311 310 311 314 316 318 317 318 318 316 319 324 326 327 333 333 331 335 336 338 338 338 339 340 338 337 338 337 338 338 337 335 334 329 325 332 335 336 337 338 338 334 332 329 326 322 321 318 317 323 319 313 322 327 326 325 321 321 327 329 330 330 331 331 331 332 330 327 328 329 330 331 331 331 329 327 326 324 323 322 320 318 319
312 317 319 319 319 320 321 323 323 321 316 312 311 309 309 309 311 313 315 317 316 317 316 315 319 323 326 330 334 328 328 334 336 338 338 338 339 339 338 337 337 337 338 337 337 336 335 329 329 333 333 335 334 335 335 331 331 327 324 321 323 321 317 322 318 316 324 325 325 325 324 325 329 330 330 331 332 333 332 332 333 331 331 331 331 331 331 328 326 325 324 323 321 319 318 318 318
315 317 319 319 316 317 319 322 323 318 313 311 310 308 308 308 311 312 313 315 315 316 314 314 317 320 323 332 335 324 323 332 335 337 338 339 338 339 339 337 337 337 337 337 337 337 336 330 331 334 332 334 333 334 333 330 330 327 324 321 326 324 319 320 316 318 325 325 325 325 327 329 330 331 331 332 332 333 333 332 333 333 332 331 330 330 329 327 325 325 323 320 316 315 315 315 318
317 317 318 317 314 316 316 320 323 316 311 311 310 308 306 307 310 311 313 313 314 315 312 313 315 317 320 326 331 322 323 333 335 337 338 339 338 338 340 339 338 338 337 336 336 336 336 331 331 333 331 331 330 332 332 329 327 325 325 323 326 324 322 320 315 321 326 327 326 325 328 330 331 332 332 332 333 334 333 333 333 334 333 331 331 330 329 328 327 324 321 316 314 314 313 314 318
317 316 316 316 316 317 317 321 321 316 311 309 309 306 306 307 309 309 311 312 313 313 311 311 311 315 316 317 321 318 326 335 334 337 339 339 338 338 339 340 339 339 338 336 337 336 335 332 330 332 331 328 327 328 329 326 323 323 324 324 324 324 326 320 314 324 327 327 327 324 328 330 331 332 333 332 334 335 334 334 334 334 333 331 330 329 328 326 324 320 317 316 315 315 313 313 317
317 317 315 316 316 317 318 319 317 317 313 308 306 305 305 307 308 307 309 311 312 311 310 309 310 316 315 311 315 317 326 333 333 337 337 339 339 338 339 340 339 339 338 337 337 337 335 333 332 332 331 327 326 325 324 323 323 324 323 322 322 324 328 319 314 326 327 326 326 325 328 330 332 332 333 334 334 335 335 335 334 335 332 329 327 325 325 323 321 319 317 318 317 315 313 312 315
316 316 315 315 314 314 314 315 315 317 312 306 305 304 305 306 306 307 308 311 310 309 309 309 310 315 313 311 315 318 324 329 332 336 336 340 340 338 340 340 339 338 338 337 337 337 335 332 333 333 331 329 328 326 324 322 321 323 322 322 323 325 328 319 315 326 326 327 327 327 329 329 333 332 333 334 334 335 335 335 335 334 331 327 325 323 323 321 321 319 318 319 318 315 313 311 313
314 314 316 314 313 312 310 311 313 315 310 305 305 304 306 306 306 307 307 309 310 308 310 310 309 312 311 313 317 318 323 327 330 334 336 339 339 339 339 338 338 337 337 337 337 338 336 333 332 332 331 330 330 328 325 323 319 318 320 322 324 324 325 319 317 325 328 330 329 328 328 329 333 332 333 334 334 335 335 335 333 331 327 325 323 323 322 321 322 320 318 319 319 314 312 311 312
311 313 315 314 312 311 309 308 311 313 308 305 305 304 307 307 307 308 306 308 310 309 310 310 309 312 313 314 316 318 324 326 329 332 335 337 338 339 338 338 338 337 337 336 336 336 336 333 331 331 331 329 328 327 322 324 321 317 320 323 322 322 322 318 319 327 330 331 329 328 328 330 333 333 334 333 334 333 333 332 329 326 324 322 322 321 321 320 320 318 318 321 318 313 311 311 311
309 311 313 312 310 309 307 306 308 309 306 304 305 305 308 308 307 307 306 308 311 311 310 309 309 311 313 314 316 320 323 326 329 331 333 334 335 336 336 337 336 337 337 336 336 335 336 334 332 331 329 327 327 327 321 323 323 318 320 320 318 319 318 318 321 328 330 330 329 329 329 331 332 332 333 332 332 331 329 328 326 325 323 323 322 321 321 319 320 320 321 320 316 312 309 310 313
309 310 310 309 308 306 305 304 305 305 304 304 304 305 307 307 306 307 307 309 310 311 311 310 310 310 312 314 317 321 323 326 329 330 331 331 332 334 335 335 335 336 337 337 336 335 335 334 333 331 329 327 326 327 321 320 322 321 322 320 318 319 317 319 324 328 330 329 329 329 330 332 331 331 331 331 330 328 326 326 325 325 325 325 324 324 324 324 325 324 323 321 317 310 306 314 320
307 308 308 307 305 303 303 303 303 303 303 304 304 305 305 304 304 306 308 308 308 310 309 309 310 310 312 315 318 320 323 325 327 328 330 331 332 333 334 334 335 335 336 336 336 335 335 334 333 332 332 330 327 328 323 315 317 321 323 323 321 319 317 321 326 328 329 329 329 330 331 332 332 332 331 330 330 328 326 326 326 326 326 326 327 327 328 328 329 326 324 321 314 310 310 315 320
306 307 306 304 303 303 303 303 302 302 302 304 304 304 304 303 303 304 307 308 307 306 306 306 308 308 310 314 317 320 322 323 325 327 328 330 331 332 333 333 334 334 335 335 335 335 335 334 333 333 334 333 331 331 325 314 313 316 318 321 321 318 317 321 325 328 329 329 329 330 331 331 332 332 332 331 330 330 329 328 328 328 328 328 329 330 330 330 328 327 324 318 312 315 317 316 317
305 305 304 303 304 304 303 303 302 302 302 304 305 304 304 303 302 303 305 307 306 304 303 304 306 305 306 310 315 318 319 322 324 325 326 328 329 331 331 332 332 333 334 334 335 335 335 334 334 334 334 334 333 333 328 317 313 314 314 316 319 318 319 324 326 327 329 329 329 330 330 330 332 332 332 332 331 331 331 330 330 330 330 330 330 330 330 330 328 325 320 314 315 318 320 319 319
304 303 304 303 305 304 303 303 303 303 303 304 305 304 304 303 302 302 303 304 303 302 302 303 304 304 304 306 311 316 318 321 323 324 325 326 327 328 329 330 331 332 333 333 334 334 334 335 334 334 334 333 334 334 332 324 315 314 316 315 316 318 320 323 326 327 329 329 329 329 330 330 330 330 331 332 332 332 332 332 331 331 331 331 331 331 330 328 324 318 311 311 316 319 320 321 320
304 303 304 304 304 304 303 303 303 303 304 304 305 304 303 304 303 302 302 302 301 301 301 302 303 303 303 303 308 314 317 319 320 322 323 324 325 327 328 328 330 331 332 333 333 333 333 334 334 334 334 334 334 334 334 331 322 315 317 319 317 317 320 321 323 326 328 328 328 328 328 329 329 329 330 331 332 332 332 332 331 331 331 331 331 330 327 321 316 311 308 310 316 319 320 320 321
304 303 303 304 303 303 302 302 303 303 304 303 304 304 303 304 303 302 301 300 300 301 301 302 302 302 302 304 308 311 314 316 317 319 320 321 323 324 326 327 328 329 330 331 332 332 333 334 334 334 334 333 333 334 334 333 330 322 317 317 318 318 319 321 322 324 326 326 327 327 328 328 329 329 330 330 331 332 332 332 331 331 331 331 330 327 320 312 314 315 311 310 315 319 320 320 319
304 303 303 303 303 303 303 302 302 303 304 304 304 304 303 302 302 302 301 300 300 300 301 302 302 301 302 304 308 310 312 315 316 318 319 320 321 322 324 325 326 327 328 329 330 332 332 333 333 334 334 334 333 334 334 333 333 331 323 317 316 318 320 321 322 324 325 325 326 327 327 328 329 329 329 329 330 332 332 331 331 331 330 329 327 323 315 312 318 319 314 313 316 318 319 319 318
303 303 303 304 304 304 303 303 303 302 303 304 304 304 303 302 302 302 301 299 300 300 301 301 301 301 301 301 305 307 309 313 315 317 319 320 320 321 323 324 325 326 327 328 329 330 331 331 333 333 333 334 334 334 334 334 334 334 331 325 318 316 318 320 322 324 325 325 324 324 325 325 326 327 327 327 329 332 332 330 329 328 327 326 324 321 316 317 320 319 315 316 318 318 319 320 319
302 303 303 304 304 304 304 304 303 302 302 303 304 304 303 302 303 303 301 299 299 300 300 301 301 300 299 299 301 303 305 307 310 314 317 320 320 321 322 323 324 325 326 327 328 328 329 330 331 332 332 333 334 334 334 334 333 334 334 332 326 320 317 317 320 322 323 322 320 319 319 319 319 319 320 321 326 329 328 326 326 324 323 324 322 320 320 320 321 319 315 315 318 319 319 320 319
301 302 303 304 305 304 304 304 303 303 303 302 303 304 304 303 302 302 301 300 299 300 300 300 300 300 299 298 298 300 301 302 305 309 314 317 319 320 321 321 322 324 325 326 327 327 328 329 330 331 332 331 333 333 333 333 333 333 333 333 332 328 322 318 317 318 320 320 319 320 322 322 321 318 315 313 318 324 325 324 324 324 324 323 321 320 321 322 321 319 315 314 317 319 319 319 319
301 302 303 303 304 304 304 304 304 304 303 302 302 304 304 302 301 301 301 300 299 300 300 300 300 299 298 297 297 297 299 300 302 305 308 312 316 317 319 320 321 322 323 324 325 326 327 329 330 330 331 331 331 332 333 333 333 333 333 333 333 332 329 324 320 319 320 321 322 324 326 327 327 326 322 316 313 319 325 326 325 326 326 324 324 323 321 321 321 319 317 318 319 320 320 320 320
302 303 304 304 305 304 304 304 304 304 303 302 302 304 304 302 302 301 300 300 299 300 300 300 299 298 297 297 296 295 296 299 300 301 303 307 311 313 316 318 320 321 322 323 323 325 326 327 329 329 330 331 331 331 332 333 333 333 332 332 332 332 332 330 326 323 323 324 325 326 327 328 328 328 328 325 318 316 323 328 327 327 328 327 326 324 322 322 321 320 320 321 321 321 322 322 322
302 302 304 305 306 305 304 304 304 303 303 303 303 304 304 302 302 301 300 300 299 299 299 298 298 297 297 296 295 295 295 296 298 299 302 305 307 310 313 316 319 320 321 321 320 322 325 325 326 328 329 330 330 331 331 330 331 332 332 332 332 332 332 332 330 328 326 326 327 328 328 328 329 329 329 330 325 318 319 326 328 327 327 327 325 324 323 323 321 319 320 321 322 323 323 323 323
304 304 305 305 305 304 304 304 303 303 303 303 303 304 304 302 302 300 300 300 298 298 298 297 297 296 296 295 295 294 293 295 297 299 301 303 305 307 311 314 318 319 320 320 318 319 322 324 324 326 327 328 329 329 329 329 329 331 332 331 331 331 331 331 331 330 327 326 327 328 328 328 329 330 330 329 327 323 321 323 324 324 326 326 324 324 324 323 322 320 320 321 322 323 323 323 323
305 305 306 305 305 304 304 304 304 303 303 303 303 303 303 302 302 300 299 300 299 298 297 297 296 296 295 295 294 294 293 293 296 299 301 302 303 304 308 313 316 318 319 320 320 319 321 323 323 324 326 327 327 328 328 329 330 330 331 331 331 330 330 330 329 328 324 323 325 325 326 326 326 328 329 328 327 327 325 324 322 322 323 323 323 324 325 324 323 322 322 322 323 323 324 324 324
305 305 305 304 304 304 304 304 304 304 303 302 303 303 302 302 302 300 299 299 299 299 298 296 296 295 295 294 293 293 292 291 293 297 300 302 303 304 307 311 313 315 316 318 319 320 321 322 322 323 325 326 326 327 328 328 329 329 330 330 330 330 330 329 327 325 323 323 323 322 322 322 322 325 326 327 328 328 327 326 325 324 322 321 322 323 325 325 324 324 324 324 324 324 325 325 325
305 305 305 304 304 304 304 304 303 303 303 302 302 302 302 301 301 301 299 299 299 299 298 297 296 295 295 294 293 293 292 291 291 293 296 300 303 305 308 310 312 313 315 316 317 319 321 321 321 322 324 325 325 326 327 327 327 327 328 328 328 329 329 328 326 325 325 324 323 322 321 320 320 322 322 323 327 328 327 327 326 325 323 321 321 321 323 324 324 324 324 325 325 324 325 325 325
304 304 304 304 304 305 304 303 303 303 303 302 302 302 302 301 301 301 299 299 299 298 298 297 296 295 294 294 293 292 292 290 290 291 293 296 300 304 307 309 311 312 313 315 317 318 320 320 320 322 323 323 324 324 325 325 325 326 325 325 326 326 326 325 325 325 325 324 324 323 322 321 320 320 320 322 325 327 327 327 326 326 324 323 322 321 322 323 324 325 325 325 325 324 324 324 325
303 303 304 304 304 305 304 303 304 303 303 303 302 301 301 301 301 301 300 299 299 298 297 297 297 295 294 294 293 292 291 290 289 291 292 293 296 299 302 306 307 309 311 313 315 317 318 319 319 320 320 321 322 322 323 323 323 323 323 324 324 324 323 323 323 324 324 324 324 324 323 322 321 321 322 324 326 326 326 326 326 325 324 324 323 323 323 323 324 324 324 324 324 323 323 323 323
302 303 304 305 305 305 304 303 304 303 303 303 302 301 302 301 301 301 300 299 299 299 298 296 296 296 295 294 293 292 291 290 289 290 291 292 293 294 296 299 301 304 307 310 312 315 316 317 318 318 318 319 320 320 320 321 321 321 321 322 322 322 321 322 322 322 322 322 323 324 324 323 323 323 324 325 325 324 324 324 324 324 323 323 323 323 323 323 323 323 323 322 322 322 322 322 321
302 303 304 305 304 304 304 304 303 303 303 303 302 301 302 301 301 301 301 300 299 298 298 297 295 295 295 294 293 292 291 290 290 290 290 291 291 292 293 294 295 298 301 304 308 311 313 315 316 316 317 317 318 318 318 318 318 319 319 319 319 320 320 320 320 320 320 320 321 322 322 322 322 323 323 322 322 321 322 322 322 322 322 322 322 322 322 322 322 322 322 321 321 321 320 319 319
302 303 304 304 304 303 305 304 303 303 303 303 302 302 303 302 301 301 301 301 299 297 296 296 296 295 294 294 292 291 291 290 289 289 290 290 291 291 292 292 292 293 295 297 300 304 307 311 313 314 315 316 316 316 316 316 316 316 316 316 316 317 317 317 317 317 318 318 318 319 319 319 319 320 320 320 320 320 320 320 320 320 320 319 319 320 320 320 321 320 320 319 319 318 318 318 318
302 301 302 303 302 301 302 303 302 303 303 302 301 303 304 303 301 301 301 301 300 298 295 295 296 295 294 294 292 291 290 290 289 289 290 290 291 291 291 292 292 293 293 293 295 296 299 303 307 310 311 313 313 314 314 314 314 314 314 314 314 314 314 314 314 315 314 315 314 314 315 315 315 317 317 318 318 319 319 319 319 319 319 318 318 318 318 318 318 318 317 316 316 315 315 315 316
303 300 299 299 300 300 300 302 303 304 304 301 300 303 305 303 301 301 301 301 300 299 297 297 297 295 294 294 293 291 290 290 289 290 290 290 290 291 291 291 292 292 292 292 292 293 294 295 298 301 304 306 308 310 311 311 312 311 311 311 311 311 311 311 311 310 310 310 309 309 309 310 310 311 312 313 314 315 316 317 317 317 316 316 315 315 315 315 315 315 314 313 313 312 311 312 313
304 300 297 299 299 300 301 302 303 304 304 301 299 302 304 303 302 301 301 301 300 300 300 299 298 296 295 294 293 292 291 290 289 290 290 290 290 291 291 291 291 291 291 291 292 292 292 293 293 294 296 297 299 302 303 305 306 305 306 306 306 305 305 304 303 302 302 302 302 302 302 302 303 304 304 305 306 307 309 310 311 311 311 311 310 311 311 310 310 309 309 309 309 309 309 309 310
304 300 298 300 299 301 302 302 304 303 302 300 299 300 302 304 303 301 300 300 300 300 300 300 299 298 296 294 293 292 291 290 289 289 290 290 290 290 290 291 291 291 291 291 291 292 292 292 292 293 293 293 293 294 296 296 297 298 298 298 298 297 297 296 295 295 295 295 295 295 295 295 296 296 296 297 297 298 299 300 301 302 302 302 302 302 302 300 300 300 300 300 301 302 302 303 303
301 298 299 300 299 300 301 302 304 302 301 303 301 299 302 305 303 300 300 300 300 300 300 300 300 299 297 295 293 292 291 291 290 290 290 290 290 290 290 290 290 291 291 291 291 291 291 292 292 292 292 292 292 292 293 293 293 293 293 294 293 293 293 292 292 292 292 292 292 292 292 292 292 292 293 293 293 293 293 294 294 295 295 295 295 295 294 294 294 294 294 294 294 295 295 295 296
298 296 298 299 298 299 300 302 304 302 302 304 302 299 301 303 303 302 301 301 301 300 300 300 300 299 298 296 294 292 292 291 291 291 291 291 290 290 290 290 290 290 290 291 291 291 291 291 291 292 292 292 292 292 292 292 292 292 292 292 292 292 292 291 291 291 291 291 292 291 292 292 291 291 292 292 292 292 292 292 292 293 292 292 292 292 292 292 292 292 292 292 292 292 292 292 292
297 297 299 300 299 299 299 300 300 302 303 302 300 299 300 302 303 303 303 302 302 301 300 299 300 299 298 297 295 293 292 292 292 291 291 291 291 291 291 290 290 290 290 290 290 290 290 291 291 291 292 291 291 291 292 292 292 292 292 292 292 292 291 291 291 291 291 291 291 291 291 291 291 291 291 291 291 291 292 292 292 292 292 292 291 291 292 291 291 291 291 291 291 291 291 291 291
297 299 301 302 302 300 301 300 298 301 303 302 299 298 298 301 302 303 303 301 301 301 299 299 299 299 299 298 296 294 293 293 292 292 292 292 291 291 291 291 291 291 290 290 290 290 290 290 290 290 291 291 291 291 291 291 291 291 291 291 291 291 291 291 291 291 291 291 291 291 291 291 291 291 291 291 291 291 291 291 291 291 291 291 291 291 291 291 291 291 291 291 291 291 291 291 290
299 300 300 302 302 301 302 301 299 301 301 300 298 297 298 301 301 302 302 302 301 300 299 298 298 299 299 298 297 295 294 293 293 293 292 292 292 291 291 291 291 291 291 291 290 290 289 289 289 290 290 290 290 290 290 291 291 291 291 291 291 291 291 291 291 291 291 290 290 290 290 290 290 290 290 290 290 290 290 291 291 291 291 291 291 291 291 291 291 291 291 291 291 291 291 290 290
298 298 299 301 301 301 302 301 300 301 301 298 295 295 298 301 301 301 301 301 301 300 299 298 298 298 298 298 296 295 294 294 293 293 293 292 292 292 292 291 291 291 291 291 291 290 290 289 289 289 289 289 289 289 289 290 290 290 290 290 290 290 290 290 290 290 290 290 290 290 290 290 290 290 290 290 290 290 290 290 290 290 290 290 290 290 290 290 290 291 290 290 290 290 290 290 290
296 296 297 300 299 300 302 301 301 301 299 297 296 296 299 301 301 300 299 299 299 299 298 298 298 298 298 297 295 295 294 294 294 293 293 293 292 292 292 291 291 292 291 291 291 291 290 290 289 289 289 289 289 289 289 289 289 289 289 290 290 290 290 290 290 289 289 289 289 289 289 289 289 289 289 289 289 289 290 290 290 290 290 290 290 290 290 290 290 290 290 290 290 290 290 290 290
296 295 297 299 298 298 299 297 297 297 296 298 298 298 299 300 299 298 297 298 298 298 298 297 298 298 297 296 295 295 295 294 294 294 294 294 293 292 292 292 292 292 292 291 291 291 291 290 290 290 289 289 289 289 289 289 289 289 289 289 289 289 289 289 289 289 289 289 289 289 289 289 289 289 289 289 289 289 289 289 289 290 289 290 290 290 290 290 290 290 290 290 290 290 290 290 289
297 296 298 297 295 296 297 296 293 292 296 299 298 299 301 300 299 297 297 298 298 298 298 298 298 298 298 297 296 295 295 295 294 294 294 294 294 294 293 293 292 292 292 292 291 291 290 290 290 290 290 290 290 290 289 289 289 289 289 289 289 289 289 289 289 289 289 288 288 288 288 288 288 288 288 288 288 289 289 289 289 289 289 289 289 289 289 289 289 289 289 289 289 289 289 289 289
297 298 296 294 294 294 295 297 296 295 300 300 298 299 301 301 301 299 298 299 299 299 299 298 298 298 298 298 297 296 295 295 295 294 294 294 294 294 294 294 293 293 293 292 292 291 291 291 290 290 290 290 290 290 290 290 289 289 289 288 288 288 288 288 288 288 288 288 288 288 288 288 288 288 288 288 288 288 288 288 288 288 288 288 288 288 289 289 289 289 289 289 289 289 289 289 289
295 296 294 294 297 297 296 297 298 299 300 300 299 299 300 301 301 300 300 299 299 299 299 299 299 298 298 298 297 296 296 296 295 295 295 295 295 295 294 294 294 294 293 293 293 292 291 291 291 290 290 290 290 290 290 290 290 289 289 289 288 288 288 288 288 288 287 287 287 287 287 287 287 287 287 287 287 287 288 287 287 287 287 287 287 288 288 288 288 288 288 288 288 288 288 288 288
293 295 294 293 295 296 297 296 296 298 299 299 300 301 302 303 300 299 300 299 299 300 299 300 300 299 299 298 298 297 296 296 296 295 295 295 295 295 295 295 294 294 294 293 293 293 292 292 291 291 290 290 290 290 290 290 290 290 289 289 289 288 288 288 288 287 287 287 287 287 287 287 287 287 287 287 287 287 287 287 287 287 287 287 287 287 287 287 287 287 287 287 287 288 288 288 287
296 297 297 295 294 294 295 294 292 295 297 297 297 300 305 303 298 298 299 298 299 299 300 301 301 299 299 299 298 298 297 296 296 296 296 296 295 295 295 295 294 294 294 294 294 293 293 292 292 291 291 290 290 290 290 290 290 290 290 289 289 289 289 288 288 288 288 288 287 287 287 287 287 286 286 287 287 287 287 287 287 287 287 287 287 287 287 287 287 287 287 287 287 287 286 286 286
296 298 297 297 296 295 297 297 292 291 293 295 295 299 303 301 297 297 298 298 298 298 299 300 300 299 299 299 299 299 298 298 297 296 296 296 296 296 295 295 295 294 294 294 294 294 294 293 293 292 292 291 291 290 290 290 290 290 290 290 289 289 289 289 289 289 288 288 288 288 288 287 287 287 286 287 287 287 287 287 287 287 287 287 287 287 287 287 286 286 286 286 286 286 286 286 285
Wind_Speed
11 10 7 6 5 5 4 5 3 1 2 2 1 1 3 3 3 4 8 9 2 6 14 13 12 9 7 5 4 5 10 9 7 5 2 7 7 5 9 3 2 10 16 18 18 17 17 17 16 14 13 12 11 10 9 9 11 13 15 16 15 14 14 14 13 13 12 10 8 7 6 4 3 3 3 4 5 6 6 6 5 5 5 5 5 4 4 4 3 3 3 1 3 7 8 10 12
11 9 6 5 4 4 2 4 3 2 2 3 2 2 3 2 3 6 10 10 7 13 19 17 10 5 6 4 3 0 8 11 12 9 5 8 5 3 7 2 1 11 15 17 17 16 17 16 16 14 13 11 11 10 9 8 9 11 13 16 17 16 15 14 13 12 12 10 8 6 5 3 2 3 4 5 6 7 6 7 6 6 6 6 6 5 4 3 2 2 1 3 6 9 10 11 14
10 8 5 4 1 2 0 2 3 2 4 3 3 3 5 3 6 9 11 12 11 15 18 14 5 3 5 2 2 1 7 10 15 14 8 9 6 3 5 3 2 11 13 17 16 15 16 16 18 15 12 10 9 9 9 9 8 9 10 15 18 19 17 15 14 13 12 10 8 6 4 3 3 4 4 5 6 7 7 8 8 7 7 7 6 6 5 4 3 2 4 7 8 10 11 12 14
8 6 4 4 3 1 2 2 2 3 4 1 3 4 6 6 9 10 13 14 11 11 16 14 2 7 7 6 7 2 9 11 13 15 10 9 8 6 3 5 4 12 12 16 15 14 14 16 19 16 13 10 8 8 9 9 8 8 9 12 16 18 19 18 17 16 14 11 9 7 5 3 4 5 6 7 6 6 8 9 10 9 8 7 5 5 5 4 3 5 7 8 9 10 11 12 13
6 6 6 7 4 1 1 0 1 3 1 2 2 4 8 8 10 11 15 14 8 8 14 14 4 7 9 12 10 3 13 13 11 15 11 9 7 5 3 4 6 12 12 16 14 13 12 15 18 16 13 10 9 8 8 9 9 9 9 10 12 15 17 19 19 18 16 12 11 8 6 5 6 8 8 7 6 5 6 7 9 9 8 6 5 5 4 3 3 4 5 6 7 9 10 12 12
8 8 9 8 4 2 2 2 3 2 3 5 2 5 8 9 11 13 16 11 4 5 12 15 7 5 5 9 11 10 16 14 14 19 15 9 5 5 4 2 8 11 12 15 14 13 12 14 17 16 13 10 9 8 7 7 9 9 10 10 11 12 14 16 18 18 16 14 12 9 7 7 8 10 9 8 8 6 7 7 8 8 8 7 6 4 3 2 1 1 3 4 6 8 10 11 12
13 11 9 8 4 2 3 3 3 3 4 5 4 6 8 11 13 12 14 9 3 6 10 16 10 3 4 4 6 12 15 15 17 18 14 9 4 5 5 2 8 9 11 13 13 14 12 13 16 16 14 12 10 7 6 6 8 9 10 10 10 10 11 15 16 14 14 15 12 10 9 8 10 11 10 9 8 7 7 8 8 9 9 8 7 6 5 4 3 2 2 3 5 8 10 11 11
14 9 7 6 3 1 3 3 2 3 4 5 5 6 9 12 13 10 12 9 7 8 13 18 12 2 4 3 3 11 14 13 15 13 13 10 4 5 4 3 7 8 10 11 13 13 12 13 14 14 13 12 10 8 6 6 8 9 9 8 8 8 11 16 14 12 12 14 13 10 10 10 11 11 10 9 8 8 8 9 9 9 9 9 7 6 5 4 3 2 3 4 7 9 11 12 12
13 8 6 4 3 2 2 3 3 5 5 4 6 8 9 13 11 9 11 9 10 10 15 19 12 5 5 5 5 11 18 14 12 8 12 11 5 4 4 3 6 7 9 10 12 11 10 12 12 13 12 12 10 9 8 8 9 9 8 6 6 5 10 17 13 13 14 13 13 10 11 11 11 11 10 10 8 8 9 10 9 9 9 8 6 5 4 2 2 3 5 7 10 13 13 13 12
9 6 5 3 3 5 4 4 3 5 5 3 6 10 10 14 10 8 11 10 12 10 17 16 8 10 7 5 4 11 22 16 9 5 11 11 6 3 4 3 4 4 7 10 11 10 9 10 11 12 12 11 9 8 8 8 9 9 7 4 5 6 7 16 15 15 15 14 12 11 11 11 11 11 11 10 9 8 10 10 9 10 9 8 6 5 3 1 2 4 8 11 13 15 15 14 12
5 4 4 2 4 5 4 4 4 5 5 3 5 12 12 15 10 9 12 10 13 10 19 18 8 12 8 5 4 11 20 13 8 8 10 10 5 2 4 3 4 2 3 8 10 10 8 10 10 11 11 10 9 8 8 9 10 8 6 5 6 6 4 11 16 17 16 14 11 11 11 11 11 10 11 10 9 9 10 11 10 10 8 7 5 3 1 1 3 6 9 13 14 15 15 14 11
3 3 3 2 2 2 2 4 5 5 4 5 7 14 14 14 10 11 13 11 14 11 19 21 11 10 7 7 5 12 17 11 12 10 8 8 4 2 3 4 4 3 1 3 7 9 8 10 10 11 11 10 9 8 8 9 9 7 6 7 7 5 3 7 16 18 15 12 11 12 11 10 10 9 9 9 10 11 11 12 11 10 9 7 4 2 0 2 4 7 10 13 15 15 15 12 11
3 2 2 2 2 1 3 4 4 3 4 7 7 15 14 11 11 12 12 10 14 14 17 22 15 5 8 10 6 16 19 15 16 9 8 6 3 1 2 3 4 3 2 3 3 8 9 11 10 11 11 9 8 7 7 8 8 7 6 7 7 7 6 7 17 17 13 13 11 12 11 10 9 8 8 10 10 11 11 12 11 9 8 6 3 1 2 4 6 9 11 13 14 15 14 12 10
4 3 2 3 2 3 3 2 2 2 3 7 9 16 12 7 12 10 10 10 13 15 12 19 17 3 10 13 8 24 25 20 19 10 7 4 2 1 2 4 5 4 2 3 1 4 8 11 10 10 8 6 6 6 6 8 8 8 8 7 7 8 9 11 18 18 14 13 11 11 11 11 10 8 8 9 8 10 11 11 9 7 4 2 1 2 4 6 8 10 12 14 15 15 14 12 10
6 4 4 3 3 4 3 3 1 1 3 8 12 17 10 5 13 9 10 11 8 13 10 16 20 4 9 14 11 25 25 22 22 13 5 2 2 2 5 6 6 6 5 3 0 3 6 9 9 9 7 5 4 4 5 8 9 8 8 7 7 9 10 15 19 18 13 11 11 11 12 11 10 9 9 8 6 7 9 8 5 4 2 2 3 5 7 8 10 12 13 15 16 16 15 12 10
10 5 3 3 3 3 3 3 1 0 4 9 14 17 8 4 13 9 7 11 6 10 14 16 20 13 11 14 14 20 19 18 19 14 5 6 6 6 8 7 6 6 5 3 1 2 5 7 8 8 7 5 3 4 4 5 9 9 6 6 7 8 12 19 20 16 11 10 11 12 12 10 8 8 9 9 7 5 6 5 3 3 3 4 5 7 9 11 13 14 14 16 18 17 15 13 11
10 6 3 4 4 4 4 5 3 2 4 9 14 16 11 6 15 11 2 10 9 5 15 15 15 18 16 14 15 16 15 14 13 12 6 6 10 10 9 7 6 5 4 3 3 2 4 6 7 7 7 6 4 4 4 4 7 8 5 5 5 7 15 20 18 14 9 9 11 11 12 11 8 8 8 7 6 6 5 5 5 5 5 6 8 9 11 12 14 14 15 17 18 17 15 13 12
7 3 4 5 4 5 4 5 5 4 5 8 11 13 14 10 16 14 3 11 14 5 11 15 11 16 18 13 13 15 14 12 10 8 2 6 11 11 10 8 7 7 5 3 4 3 3 5 6 7 7 6 5 4 4 4 4 4 3 3 3 9 17 19 15 12 9 10 11 12 12 11 11 10 9 8 7 8 8 8 8 8 8 10 10 11 12 12 13 14 16 17 17 17 14 10 11
11 3 5 6 4 5 5 6 5 5 5 7 6 9 15 14 16 14 6 11 19 12 14 20 17 19 21 17 14 14 16 15 11 9 7 6 8 9 9 7 5 7 8 6 3 4 5 5 6 6 6 6 5 4 4 4 3 3 4 5 7 13 18 16 13 12 10 11 12 12 12 11 12 12 10 11 11 11 11 10 10 10 11 11 12 12 12 12 13 15 16 17 18 16 13 9 9
11 6 7 6 4 5 8 8 6 4 5 6 3 4 12 17 18 15 7 6 15 17 16 21 23 25 25 20 17 15 16 17 14 12 12 8 7 8 7 6 4 4 8 9 7 8 9 8 7 6 6 6 5 5 5 4 4 5 6 8 11 15 17 15 13 12 10 10 11 12 11 10 13 13 12 12 12 11 11 12 12 12 12 12 12 12 12 13 13 14 15 16 16 13 11 11 10
9 8 7 5 4 5 10 9 7 4 2 5 4 3 8 13 18 20 13 4 8 15 15 17 19 23 23 19 18 17 16 16 14 14 15 12 10 9 8 7 5 4 6 10 10 10 11 11 10 9 8 7 7 7 7 5 5 6 7 9 13 14 14 14 14 13 11 10 11 12 11 11 10 11 13 13 12 12 12 12 13 13 13 13 12 12 12 13 13 13 15 16 14 11 11 11 10
11 11 10 7 6 7 10 10 10 7 4 6 7 7 6 8 14 21 19 9 7 13 15 14 14 16 18 18 16 16 16 16 15 14 16 15 13 12 10 8 7 5 4 7 9 9 10 11 13 12 10 9 8 8 8 7 7 7 7 10 14 14 13 13 13 13 11 10 12 13 12 12 10 9 12 13 12 13 13 13 14 14 14 13 12 11 11 12 13 15 17 16 13 11 11 11 11
9 11 12 11 9 9 7 11 14 10 8 9 7 7 6 7 11 16 18 13 10 12 13 12 12 12 14 15 15 14 15 17 17 15 16 16 14 12 10 9 7 6 4 6 8 7 8 11 13 12 11 10 10 9 9 8 8 8 8 10 15 16 14 13 14 13 12 10 11 12 13 14 13 12 13 13 14 14 14 14 15 15 15 13 12 12 11 12 15 17 18 15 12 11 12 11 11
13 10 11 11 11 10 5 8 13 12 13 10 7 8 8 8 9 13 16 14 12 11 12 10 10 11 12 13 14 14 14 16 18 17 16 17 16 12 10 9 7 6 4 5 7 7 6 8 11 12 11 10 10 10 9 10 9 10 10 11 14 16 15 13 13 13 13 12 11 12 14 15 15 15 15 16 17 16 14 14 15 15 15 11 11 13 13 14 14 14 16 15 12 11 12 12 12
14 10 9 10 10 11 7 6 8 10 11 8 10 13 10 6 6 14 17 14 13 12 11 10 10 11 12 13 14 14 14 14 16 17 16 17 16 14 11 9 7 5 4 4 6 5 4 4 6 9 10 10 10 9 9 11 11 12 12 12 14 15 16 14 14 14 13 13 12 13 15 16 17 17 17 18 19 19 16 13 14 15 13 11 13 15 15 14 12 12 15 14 11 12 12 12 11
10 11 10 11 12 13 10 8 7 7 9 8 10 14 10 5 3 10 16 15 13 12 11 10 10 12 13 14 14 14 15 14 15 16 16 15 15 15 13 10 8 7 6 5 5 5 4 3 4 5 8 10 11 11 10 12 13 13 13 13 14 15 16 16 15 14 13 13 14 15 16 17 18 18 19 18 18 20 17 11 13 13 12 12 14 15 15 15 12 12 15 13 12 12 11 11 11
8 10 11 11 12 16 15 12 10 4 6 9 7 11 13 9 3 6 14 15 13 11 11 11 11 12 13 14 14 14 15 15 15 15 14 14 13 14 14 13 12 11 9 7 7 6 5 3 4 5 5 7 10 11 12 12 13 15 14 13 14 15 15 16 16 15 14 14 15 16 16 17 17 18 19 17 15 16 14 11 13 13 13 14 15 15 15 15 14 14 15 13 12 12 11 10 11
4 4 5 8 10 18 21 16 15 6 5 9 2 4 11 12 8 8 13 14 13 11 10 11 11 12 13 13 14 14 15 15 15 15 15 14 14 14 14 14 13 12 11 10 9 10 8 5 3 4 5 6 7 9 10 10 9 11 12 12 13 15 16 17 17 16 16 17 16 15 15 15 16 16 17 17 15 14 14 13 14 14 14 14 15 16 14 15 15 15 14 13 12 11 11 12 12
5 1 1 4 7 15 20 17 16 8 8 11 3 4 6 10 10 10 12 12 12 10 9 11 11 12 13 13 13 14 14 14 15 15 16 15 15 14 13 13 12 11 12 11 9 9 9 7 5 5 5 6 6 6 8 9 10 12 14 14 13 14 16 19 19 18 18 18 17 16 16 16 17 17 17 17 16 15 15 16 16 16 16 15 15 15 14 14 15 13 12 11 10 10 11 11 12
5 4 2 2 2 8 14 17 16 9 11 13 3 4 4 8 10 10 10 11 10 9 9 11 10 11 12 12 12 13 14 14 14 14 14 14 14 13 13 12 11 10 11 11 11 8 6 7 6 6 5 5 4 4 5 7 12 15 16 16 14 14 14 17 20 21 21 20 18 17 18 19 20 21 21 21 20 17 17 17 19 19 18 16 15 14 14 14 14 12 10 10 10 10 10 11 12
2 1 3 3 2 5 9 15 17 10 12 15 5 5 4 5 9 9 9 10 9 9 9 10 10 10 11 11 12 12 14 14 13 11 12 12 12 12 12 12 11 10 9 10 10 10 5 6 6 5 7 6 5 4 2 3 7 12 13 12 12 12 11 13 16 20 21 17 15 14 16 18 21 23 24 25 24 22 19 19 19 19 17 15 14 15 14 14 14 12 11 11 11 11 11 11 12
2 1 2 4 3 4 4 10 16 10 9 15 8 4 2 4 7 8 9 9 8 7 8 9 10 10 11 11 12 12 13 14 12 10 10 11 12 12 12 11 11 10 9 10 9 7 6 4 7 6 7 7 7 6 5 3 2 6 8 7 7 8 9 9 10 12 11 7 6 7 8 11 14 18 22 24 22 21 22 22 23 21 19 17 16 16 16 15 14 12 12 13 13 13 13 13 13
5 4 3 4 4 4 3 5 11 11 8 11 9 4 2 4 7 8 8 9 8 6 7 9 10 10 11 11 11 12 13 14 13 11 11 10 12 13 12 11 10 9 9 9 9 5 2 3 7 7 7 9 8 8 7 5 3 4 5 5 5 4 5 5 5 5 4 1 1 4 7 10 11 11 14 18 17 18 21 22 25 24 22 20 19 18 18 17 16 13 13 14 15 16 16 15 15
5 5 2 3 4 4 5 3 6 11 8 8 8 4 3 5 7 8 7 8 8 7 8 9 9 9 10 11 12 12 13 16 16 14 12 10 10 12 11 10 9 7 8 8 9 8 5 5 8 9 9 10 10 9 8 7 5 5 6 7 8 7 6 8 7 5 3 2 1 4 6 9 11 10 12 14 12 14 17 20 23 23 23 22 22 21 21 20 18 16 14 14 15 16 17 19 19
5 6 3 3 3 2 5 6 6 9 7 6 6 3 3 4 5 6 7 7 7 8 10 10 10 10 9 10 11 12 13 15 16 15 13 11 10 10 10 9 8 7 7 7 9 9 7 7 9 10 10 10 11 10 8 8 7 6 7 9 10 10 10 10 8 6 5 4 2 4 6 6 8 9 11 14 12 10 12 17 20 21 22 22 23 24 23 22 21 18 17 16 17 18 18 19 20
3 4 4 4 5 3 4 5 7 8 7 5 5 4 4 4 4 5 6 6 6 7 9 10 10 10 9 10 11 12 13 15 16 15 14 13 12 10 9 8 8 8 7 6 8 9 9 9 10 10 10 11 11 11 10 10 9 8 9 9 9 10 10 10 8 7 7 6 5 5 7 6 7 9 10 12 11 8 8 11 15 17 17 18 21 23 23 23 22 20 18 17 16 15 16 18 19
2 2 3 5 5 4 4 4 6 7 7 5 4 5 5 3 3 4 4 4 4 5 7 9 10 9 8 9 10 11 12 13 15 16 16 16 15 13 12 10 10 9 9 8 8 10 11 11 11 11 11 12 12 12 11 11 11 10 10 9 9 9 9 9 8 7 6 4 3 4 7 7 8 10 10 10 9 7 5 6 9 10 10 11 13 16 17 18 18 17 16 14 12 11 13 15 14
2 3 4 4 4 6 5 5 6 6 5 6 6 7 7 3 2 2 3 4 3 5 6 9 11 10 7 8 9 9 10 12 14 16 17 17 17 16 16 15 14 13 12 11 11 11 12 12 12 12 12 12 13 13 12 11 12 12 11 11 11 11 11 11 10 9 9 7 5 3 4 5 6 8 8 7 6 5 4 4 4 4 5 5 5 7 8 10 10 10 8 6 5 6 8 8 9
1 2 4 3 4 7 5 2 5 5 5 7 9 10 8 4 3 1 2 3 2 4 5 6 10 10 8 8 8 9 10 12 14 15 16 17 17 17 17 18 18 17 16 15 14 13 12 12 12 13 12 12 12 13 13 13 12 12 12 13 13 12 13 12 12 12 12 10 9 8 7 5 3 3 4 5 4 3 3 3 2 2 2 2 2 3 4 4 3 2 1 1 1 1 4 6 9
1 2 3 3 5 6 3 1 6 9 6 7 11 11 7 4 4 3 2 0 1 2 4 5 8 9 9 9 8 9 10 11 12 14 16 16 16 17 17 18 18 18 18 17 17 16 15 13 12 12 12 11 11 11 12 13 13 13 13 13 13 13 13 14 14 13 13 12 12 12 12 12 11 9 10 9 8 7 7 6 5 4 3 3 3 3 4 4 3 4 4 4 3 2 2 5 8
2 1 2 3 4 4 5 5 9 11 5 4 11 10 3 3 5 4 3 3 1 1 2 4 8 9 8 8 8 8 9 10 11 13 15 16 16 17 17 17 17 18 19 19 18 18 18 16 14 12 12 11 11 11 11 12 12 13 13 13 13 13 13 13 13 13 13 13 13 14 14 14 13 13 13 12 12 11 10 9 8 8 7 6 5 5 5 6 5 5 5 5 4 4 5 6 6
1 2 0 4 5 5 6 7 8 8 2 3 8 7 1 3 6 4 3 4 3 3 2 6 7 8 7 6 6 7 7 8 11 13 14 15 15 16 17 17 17 18 19 19 18 18 18 17 16 15 14 13 11 10 10 10 10 11 11 12 13 13 12 12 12 13 13 13 13 14 14 14 13 13 13 13 12 11 10 9 9 8 8 7 6 5 5 5 5 4 5 5 5 7 7 6 7
1 2 1 4 4 4 4 5 5 5 4 3 4 5 4 1 5 5 4 4 4 5 5 7 5 5 6 5 6 6 6 7 9 11 12 13 14 15 16 16 17 18 18 18 17 17 16 16 16 16 16 16 14 13 11 11 10 11 12 13 14 14 15 16 16 16 16 16 16 16 16 15 15 14 14 14 13 12 11 10 9 8 8 8 7 7 6 6 7 8 8 8 8 8 8 9 10
2 3 0 3 4 4 2 2 3 3 5 3 2 1 5 4 1 4 5 5 5 6 6 7 7 6 5 5 6 6 5 6 8 9 11 12 13 14 15 15 16 16 16 16 15 16 16 15 15 15 16 16 16 15 14 13 13 14 15 15 16 17 19 20 20 20 20 19 19 19 19 19 18 17 17 17 16 16 15 14 12 12 12 12 12 11 12 13 12 13 13 12 12 12 12 12 13
2 2 1 3 3 3 2 3 4 2 3 2 3 1 5 4 1 4 5 5 7 8 8 8 8 6 5 6 6 4 3 4 7 8 10 11 12 13 13 14 14 13 13 14 14 14 14 14 14 13 14 15 15 14 14 14 15 15 16 17 18 19 20 20 20 20 21 20 20 20 20 20 20 19 19 18 18 18 18 17 16 16 16 16 16 16 17 17 16 17 17 17 17 17 17 17 16
4 2 3 3 3 2 2 3 3 2 3 1 2 3 4 4 0 4 4 5 8 8 7 8 9 8 8 8 7 5 2 2 3 5 8 9 10 11 11 12 12 12 12 12 12 12 12 12 12 12 13 14 14 14 14 14 14 15 16 17 18 19 19 19 19 19 19 19 19 20 20 20 20 20 19 19 18 18 18 17 17 17 18 18 18 18 18 18 19 19 20 20 20 20 21 20 20
6 5 6 5 4 2 2 2 2 3 2 2 3 2 3 4 1 3 4 4 5 6 6 8 9 10 11 11 9 7 4 2 1 2 4 6 7 9 10 11 11 11 11 10 10 11 11 11 10 10 11 13 13 13 13 13 13 14 15 16 17 17 18 18 17 18 18 17 18 18 18 18 18 19 19 18 18 18 18 17 17 18 18 18 18 19 19 19 20 20 21 21 21 22 22 22 22
4 4 5 4 3 3 3 2 2 3 2 3 3 1 2 4 2 1 3 3 4 6 8 9 12 13 12 11 10 9 7 5 3 2 2 2 4 5 7 9 10 10 10 10 9 9 10 10 10 9 10 11 12 12 12 12 13 14 14 15 15 15 15 16 16 16 16 16 16 17 17 17 17 17 17 17 17 17 17 17 17 17 18 18 18 18 19 19 19 19 20 20 21 21 22 22 22
3 3 5 5 2 1 1 1 1 2 2 3 2 2 2 5 4 3 4 5 6 7 8 10 12 12 11 12 12 11 9 7 6 4 3 2 1 1 3 6 8 9 9 9 8 8 8 9 9 9 9 10 11 11 11 11 12 13 13 13 14 14 14 14 14 15 15 15 15 15 15 16 16 16 16 16 16 16 16 16 16 17 17 17 17 17 17 17 18 18 18 19 19 20 20 21 21
5 4 4 4 4 4 4 4 2 3 2 2 2 1 3 4 3 2 3 3 4 6 6 8 10 10 11 12 12 12 11 10 8 7 5 4 3 2 1 2 4 6 7 7 7 7 7 7 7 8 9 10 10 10 10 10 11 11 12 12 12 12 12 13 13 13 14 14 14 14 14 14 14 15 15 15 15 15 15 15 15 15 16 16 16 16 16 16 17 17 18 18 18 19 20 20 20
3 2 3 3 3 4 4 4 4 5 5 3 1 1 3 3 2 2 0 2 2 6 7 8 10 10 10 11 12 14 14 12 11 9 7 5 4 4 3 1 1 4 5 6 6 6 6 6 6 6 7 7 8 9 9 9 10 10 10 10 10 11 11 11 12 12 12 12 13 13 13 13 14 14 14 14 14 14 14 14 14 15 15 15 15 15 16 16 17 17 18 18 19 20 20 20 21
1 1 3 2 3 3 3 1 2 4 5 4 2 1 3 2 1 2 0 1 2 7 9 10 10 11 12 13 14 15 15 14 13 11 10 8 6 5 4 3 2 0 2 4 4 4 4 4 5 5 5 5 5 6 7 7 8 9 9 8 9 9 9 9 10 10 11 11 11 11 12 12 13 13 13 13 13 13 13 13 13 14 14 14 15 15 16 16 17 18 18 19 20 20 21 22 23
1 1 1 2 2 3 2 0 0 1 3 2 1 4 5 2 1 1 2 3 4 5 8 11 11 12 14 15 17 17 16 15 14 13 11 10 8 7 5 5 4 2 1 1 2 2 2 2 3 3 4 4 4 4 4 5 6 6 7 7 7 7 7 8 8 8 9 9 9 10 10 10 11 11 11 11 11 11 12 12 12 13 13 14 14 15 15 16 17 17 18 19 20 21 22 23 24
3 1 2 2 0 0 1 2 2 2 3 2 1 5 7 3 1 1 3 5 6 7 8 9 11 13 16 18 20 19 17 16 16 15 13 12 11 9 8 7 5 4 3 2 1 1 0 1 1 1 2 3 3 3 3 3 4 4 5 5 5 5 5 6 6 6 6 7 7 7 8 8 8 9 9 9 10 10 11 11 12 12 13 13 14 14 15 16 16 17 18 19 20 21 22 23 24
3 2 3 0 1 0 0 2 3 3 4 4 3 4 5 3 1 1 2 4 5 7 8 8 11 15 17 21 22 21 19 19 18 17 16 14 13 11 9 8 7 7 6 5 4 3 2 2 2 2 2 2 2 3 3 3 3 3 3 3 3 3 4 4 4 4 4 4 4 5 5 5 6 7 8 8 9 10 10 11 12 13 13 14 14 15 15 16 17 18 18 19 20 21 22 23 25
3 3 2 1 1 1 2 2 2 3 4 5 4 4 3 3 1 2 2 0 1 5 7 9 13 16 19 23 24 22 21 21 21 20 17 15 13 12 11 10 9 9 8 8 7 6 6 5 4 4 4 4 4 4 3 4 3 3 3 2 2 2 3 3 3 3 3 2 2 2 3 4 5 6 7 8 8 9 10 11 11 12 13 14 15 15 16 17 18 18 19 20 21 22 24 25 26
1 2 1 0 1 0 1 1 1 2 3 3 4 6 6 1 2 3 4 2 2 1 4 6 10 13 18 23 25 24 23 23 22 21 19 17 16 14 13 13 12 12 12 11 10 9 9 9 7 6 6 6 6 6 5 5 5 4 4 3 3 3 3 4 4 4 4 3 3 3 3 3 4 5 6 8 8 9 10 10 11 12 13 14 15 16 17 18 19 20 21 22 23 25 26 27 28
3 2 1 0 1 1 2 1 1 0 2 2 2 7 9 3 2 3 3 2 2 3 4 5 7 9 13 16 18 20 22 24 24 24 22 21 19 18 17 16 16 16 15 14 12 12 12 11 10 10 9 8 8 8 8 8 7 7 6 5 5 5 5 5 5 6 6 5 5 5 5 5 5 6 7 8 9 10 10 11 12 13 14 15 16 17 18 20 21 22 23 24 26 27 29 30 31
Wind_Direction
263 268 276 283 301 315 335 332 277 149 274 223 73 129 81 16 326 340 3 2 333 349 338 323 312 281 272 307 346 28 36 18 5 349 335 336 322 168 174 191 143 172 174 170 173 183 182 183 186 185 182 180 182 180 179 172 174 184 192 194 188 182 177 177 175 171 176 176 176 172 170 177 168 170 195 209 214 211 197 189 189 186 182 184 184 168 149 139 132 129 132 88 12 356 0 357 347
259 260 265 268 296 308 327 333 273 189 239 206 101 57 30 337 340 7 357 348 329 324 322 319 309 276 274 287 301 14 55 40 23 9 337 339 354 164 187 188 151 173 176 172 172 183 183 186 185 186 187 183 184 180 181 180 179 185 192 199 199 194 188 185 184 181 183 184 185 184 184 190 195 221 228 223 216 216 210 203 200 186 185 188 188 190 188 180 170 156 159 337 338 340 346 345 341
256 251 247 239 269 325 5 302 258 223 232 207 108 59 3 343 2 356 334 327 318 318 327 328 309 347 313 247 328 26 45 32 19 11 358 2 8 340 212 223 178 172 181 172 171 184 183 191 190 185 183 182 188 186 188 192 192 192 192 197 203 205 202 198 193 190 189 187 191 201 206 198 224 235 212 196 193 204 210 203 193 185 190 190 188 196 203 207 215 274 310 323 328 332 339 341 340
243 237 208 184 183 176 211 247 252 254 232 205 111 70 17 356 347 334 325 323 315 324 346 343 334 32 25 34 3 20 19 360 4 7 1 354 339 338 233 243 162 168 185 173 175 184 184 197 195 185 178 181 189 195 202 203 206 205 199 196 203 208 211 210 205 203 201 196 197 203 204 207 222 201 173 174 178 190 206 205 198 196 196 190 189 199 207 225 260 298 313 327 334 339 343 341 342
208 203 174 171 183 166 191 218 251 246 252 348 107 65 19 352 340 327 322 321 319 339 360 359 5 30 43 39 19 45 7 349 355 2 351 339 331 341 283 258 161 168 181 175 180 182 188 197 192 185 178 185 191 198 211 214 217 216 213 208 209 210 214 217 213 212 209 202 198 193 195 210 203 178 168 169 167 163 173 188 191 192 194 191 191 199 215 239 275 314 332 344 346 343 341 336 336
159 158 151 156 148 131 183 207 209 160 32 353 44 41 8 350 339 324 324 322 325 355 9 12 358 345 56 56 46 51 15 6 4 356 345 339 341 347 326 255 160 165 174 178 184 179 191 195 186 183 180 189 196 202 217 226 230 231 229 225 220 214 217 221 220 215 206 198 193 187 196 205 191 177 176 172 163 149 139 146 155 165 171 177 179 174 184 183 123 23 4 356 347 339 334 330 328
146 140 141 145 116 143 219 212 182 110 51 13 34 19 359 350 336 326 339 345 1 6 8 9 349 309 87 76 59 41 17 16 9 358 354 352 3 359 349 149 155 163 174 181 184 178 190 195 184 182 183 189 198 208 218 237 246 247 245 238 226 217 216 219 221 213 196 191 187 186 200 202 191 184 181 179 169 157 143 138 144 152 152 155 162 157 155 144 116 83 38 358 344 334 329 324 323
145 134 140 154 117 183 220 176 117 78 79 52 44 14 354 345 336 334 350 2 2 353 358 1 350 331 53 32 88 33 14 16 10 7 11 5 15 7 6 130 155 163 173 182 181 180 193 190 182 186 188 190 201 214 224 247 254 256 261 263 249 227 204 208 212 192 181 186 184 189 202 198 193 191 188 188 179 167 158 154 152 153 154 157 163 161 157 147 121 74 26 350 336 329 327 322 318
140 128 137 158 136 154 180 153 97 85 98 69 41 14 356 346 338 342 351 6 1 350 360 358 355 4 18 29 85 28 9 9 4 13 27 15 4 17 28 113 156 164 170 179 176 179 197 188 177 188 194 194 206 219 234 252 253 257 263 264 257 244 193 201 201 172 175 185 185 193 199 195 194 195 196 196 190 179 173 170 164 162 163 163 163 158 153 139 84 23 353 340 334 331 328 320 312
129 123 132 144 154 171 178 158 121 99 80 71 36 14 359 350 341 348 354 4 0 358 6 360 10 18 4 27 68 22 7 358 353 17 37 25 353 16 44 85 139 153 170 173 176 181 197 194 182 186 193 197 206 216 229 249 256 259 258 224 230 262 205 199 188 166 177 182 185 197 197 198 197 198 202 203 199 191 183 179 172 168 163 159 162 154 143 65 354 333 331 331 332 331 331 325 314
115 115 130 155 168 179 186 155 125 110 62 67 43 19 359 347 344 355 357 2 1 6 12 8 13 3 353 34 50 11 4 356 12 23 28 30 348 340 55 66 122 123 170 168 179 185 194 203 194 192 198 204 208 216 230 250 259 258 247 216 229 261 230 197 179 167 177 178 187 201 203 204 205 205 205 208 208 202 192 184 177 169 160 155 159 151 144 338 325 320 324 327 329 330 333 330 317
113 130 162 163 158 169 165 134 104 117 69 38 22 9 352 348 2 1 354 359 2 12 19 11 351 336 348 18 8 355 3 11 20 16 15 29 350 302 65 52 111 113 127 140 181 191 193 205 205 204 209 217 222 226 238 256 261 260 244 227 238 232 203 187 173 167 173 177 190 203 209 210 212 214 209 210 211 211 197 187 186 175 160 150 150 153 234 312 320 324 329 332 331 331 334 329 309
95 135 173 105 61 58 83 118 95 130 81 32 4 352 348 0 11 358 347 359 14 16 14 6 346 319 3 353 334 352 2 12 6 6 17 25 2 303 82 51 91 96 115 106 183 200 199 206 209 211 216 225 236 248 253 263 261 266 259 235 239 204 181 181 171 167 170 178 192 205 214 214 213 216 217 210 207 214 202 195 192 172 156 145 146 196 300 316 320 325 333 337 333 329 332 327 306
90 47 85 105 75 75 51 98 105 139 76 26 6 350 349 16 5 358 0 10 31 18 0 6 1 300 358 352 342 354 356 359 354 359 18 10 9 38 107 75 92 64 86 112 135 216 212 210 210 217 224 228 244 276 283 282 265 260 261 239 231 204 187 181 174 172 175 182 193 204 216 222 212 204 218 210 205 217 201 194 190 170 166 157 174 288 308 315 318 323 331 334 330 327 329 327 309
86 59 72 111 101 83 34 39 58 126 66 26 9 351 344 25 5 11 22 14 23 14 10 18 20 31 0 0 342 348 353 350 345 347 7 79 69 113 104 78 89 66 64 78 40 227 220 217 222 224 229 231 240 282 290 292 281 263 256 238 228 218 193 179 176 177 181 189 196 201 215 227 212 196 209 203 197 214 189 173 181 197 229 279 299 298 306 312 315 317 323 327 326 325 326 325 315
71 71 81 92 88 83 35 29 353 120 52 19 8 358 349 22 12 15 18 8 352 13 33 32 34 45 21 7 346 348 359 352 342 334 333 124 129 156 123 91 91 77 76 67 84 204 212 217 230 234 241 242 238 271 271 282 285 275 260 248 238 222 190 179 177 179 185 193 196 201 213 225 216 200 201 191 182 195 188 174 201 247 268 290 291 298 308 311 312 313 317 320 321 322 323 320 313
61 62 75 85 69 71 36 13 7 343 359 6 12 7 4 1 5 9 339 5 3 31 43 40 41 37 22 8 2 11 16 1 351 332 299 133 124 149 140 126 129 106 94 66 80 158 195 201 216 229 250 255 245 268 274 252 273 288 288 276 250 198 178 176 176 180 193 200 200 206 211 213 210 207 199 193 196 206 225 235 243 258 273 287 295 305 309 310 311 312 313 315 317 319 319 315 310
49 51 68 80 61 54 19 352 352 318 320 1 14 12 20 7 349 358 1 10 14 34 30 24 25 23 23 19 18 31 30 20 17 2 338 102 100 126 133 137 153 144 133 96 75 102 167 189 200 215 235 252 250 255 281 261 264 301 296 267 213 172 168 174 182 189 200 204 205 213 217 214 204 206 208 209 226 237 248 256 260 270 280 288 296 301 303 307 309 309 311 312 314 315 313 310 302
43 50 77 69 64 52 9 343 331 313 323 352 16 25 34 23 350 353 7 17 22 21 358 359 359 1 15 24 26 35 39 40 39 53 78 74 82 108 119 128 153 153 149 149 136 142 163 180 189 207 216 234 248 241 272 277 259 247 219 208 185 171 170 179 195 199 208 211 212 219 223 224 210 206 210 213 221 231 240 247 253 263 271 279 284 289 295 301 304 308 309 310 313 313 309 298 285
32 37 84 69 74 59 22 7 347 330 330 350 20 37 36 28 14 9 351 7 33 25 356 350 349 346 356 12 23 33 42 46 48 65 80 80 86 100 108 117 132 146 160 172 181 179 174 172 175 195 208 216 225 224 246 266 260 241 220 204 186 178 179 191 204 208 221 219 217 226 230 238 226 212 212 218 222 225 233 240 246 253 261 268 275 283 291 298 304 309 308 309 311 308 302 295 286
41 39 82 76 83 59 27 21 17 19 15 27 38 34 31 26 26 25 13 5 30 14 356 347 339 336 345 0 19 34 42 48 49 60 75 81 83 93 100 105 111 125 178 188 191 191 181 173 175 183 195 206 213 221 235 240 239 235 223 204 190 188 196 204 211 218 231 226 227 236 240 251 247 227 225 226 228 233 239 246 248 251 259 264 271 279 289 299 304 302 300 304 306 301 295 294 290
72 57 75 75 82 73 38 36 45 44 61 56 51 48 31 29 35 32 32 40 9 349 344 341 337 337 345 356 14 34 46 53 52 53 67 77 77 83 93 102 113 126 181 197 192 197 195 193 191 186 185 193 205 220 232 235 232 224 215 205 198 200 211 217 221 227 230 230 240 248 253 262 269 264 252 238 234 241 243 249 254 255 259 262 269 280 291 300 298 295 302 305 300 295 290 292 293
93 73 74 71 74 82 55 48 55 49 59 57 55 62 42 50 46 34 37 35 4 346 345 342 342 347 352 2 17 34 48 56 56 53 59 69 73 72 80 88 102 121 156 189 184 187 199 209 208 197 188 190 197 210 224 234 235 225 213 208 207 208 217 226 231 235 233 234 244 251 263 271 274 276 272 257 245 244 245 252 260 260 257 259 271 286 298 299 295 300 310 309 299 296 293 291 289
92 92 76 69 65 70 63 52 54 48 57 57 63 66 41 50 50 34 34 20 3 357 354 354 353 357 3 15 27 36 46 57 61 59 56 62 70 68 69 72 75 90 113 157 159 165 187 209 214 204 197 199 199 202 217 228 230 230 224 216 215 216 220 227 234 242 244 245 248 254 265 274 277 277 279 275 261 249 249 258 259 254 252 261 283 294 302 301 297 303 311 309 301 295 288 281 279
75 94 84 72 61 57 61 59 51 45 49 46 60 58 40 59 64 39 29 8 4 3 0 7 8 10 13 22 33 40 46 57 65 67 63 62 67 73 72 65 70 82 83 106 124 144 166 193 207 208 209 214 218 211 215 223 226 231 232 226 222 224 226 229 234 242 249 253 257 259 261 266 273 275 276 281 273 249 241 259 262 258 265 283 298 300 305 306 299 302 308 307 298 290 288 291 296
73 93 89 76 66 53 51 50 42 42 37 28 55 57 42 48 80 47 28 6 3 3 7 14 15 18 18 20 30 40 44 51 62 68 69 65 63 69 72 65 65 70 68 83 103 120 130 144 165 193 209 218 226 226 224 226 229 231 234 235 228 228 230 232 236 241 247 250 252 253 254 256 260 267 269 276 280 256 243 265 276 276 288 293 297 298 302 304 299 301 303 302 297 297 302 306 307
97 99 89 80 72 49 39 39 30 31 38 21 49 65 48 36 38 35 14 3 3 2 8 15 20 21 17 16 22 34 40 43 51 62 72 74 67 63 65 62 58 63 66 76 89 93 98 110 131 147 176 204 217 224 230 233 234 230 232 237 234 232 232 235 239 240 245 244 245 249 253 256 258 265 268 270 280 271 262 275 279 281 286 286 290 292 294 298 299 300 300 299 297 301 303 301 301
104 135 105 74 69 43 29 26 17 8 18 0 331 80 46 39 35 13 357 356 0 0 7 15 22 21 16 15 15 23 32 35 42 54 65 71 70 62 61 58 51 52 54 58 71 81 88 92 109 137 158 178 195 209 218 221 223 222 226 230 230 230 229 234 238 238 242 243 243 246 251 258 261 266 270 269 269 268 267 266 267 270 272 275 282 285 287 293 297 299 301 303 303 303 302 305 309
68 106 154 57 69 43 25 14 6 5 6 356 271 229 33 39 21 0 352 353 355 360 10 14 20 20 17 16 13 16 21 31 39 47 55 63 72 69 66 65 54 48 44 37 41 67 89 93 102 129 154 164 172 187 196 199 197 197 208 216 216 219 222 228 233 236 239 242 246 249 253 259 265 269 271 271 266 260 260 260 260 259 260 263 268 277 285 289 294 295 296 300 303 303 306 315 317
67 43 21 16 76 41 23 9 0 10 10 1 288 251 23 39 7 357 352 352 353 1 12 13 17 18 15 15 15 15 15 26 35 41 49 59 72 77 75 77 74 67 58 41 20 25 79 93 96 108 118 132 144 161 183 202 206 205 210 216 219 221 225 228 232 236 239 245 253 262 267 268 271 271 270 269 263 255 254 260 262 258 257 259 264 273 281 287 290 288 285 287 292 299 306 313 314
74 5 27 17 15 26 27 15 7 17 11 358 314 272 19 25 356 357 350 352 357 360 9 10 12 13 13 13 14 15 14 20 26 35 51 61 68 76 81 87 89 85 79 66 34 3 23 83 91 91 99 104 100 101 123 191 213 218 221 228 232 232 234 237 239 240 246 254 261 271 277 278 275 271 270 268 259 251 250 255 258 255 256 260 263 266 273 280 284 284 283 280 282 289 294 300 302
24 281 46 24 13 20 34 32 20 12 357 359 343 291 0 1 352 356 349 355 355 358 9 5 8 11 10 11 13 14 14 19 24 32 50 63 66 68 77 88 95 96 90 86 70 19 358 67 93 92 104 109 99 91 84 80 156 204 212 225 235 235 236 242 247 242 246 260 274 291 304 306 295 279 274 272 264 256 253 252 253 251 254 259 258 259 266 269 270 276 279 278 280 280 284 291 295
32 26 51 20 1 0 4 50 31 6 347 6 9 353 357 350 352 353 352 357 350 354 11 7 9 10 9 10 11 13 13 20 26 31 41 54 64 65 71 80 86 93 95 96 101 94 44 90 102 103 109 110 107 103 96 93 118 169 178 177 182 202 210 202 202 207 206 185 36 358 356 351 338 315 293 285 279 274 266 260 258 256 256 258 254 255 263 263 261 263 266 273 279 281 284 286 289
20 16 52 35 357 343 351 24 27 3 355 10 10 12 13 349 345 348 354 358 351 355 5 9 10 7 10 10 9 12 13 19 26 30 35 39 54 66 71 75 78 84 94 102 112 121 128 116 110 110 107 106 107 105 103 108 116 134 152 157 157 157 160 160 165 181 194 182 60 0 343 347 344 337 328 316 304 293 282 273 269 265 260 257 253 255 261 259 256 255 256 263 271 277 283 286 288
1 6 9 7 349 341 352 354 360 350 345 3 4 3 7 348 343 348 353 357 360 5 3 3 3 2 11 12 9 11 12 22 31 34 37 37 42 59 68 74 82 83 89 102 112 119 124 120 114 113 111 110 112 113 112 115 123 139 149 156 163 163 164 169 178 188 191 194 221 303 302 327 337 330 329 321 316 315 298 281 275 272 265 259 256 258 262 260 259 260 259 260 267 274 279 282 283
0 357 341 340 335 339 341 339 354 341 322 340 355 340 330 332 345 350 350 353 3 10 2 356 354 356 6 13 11 11 15 28 40 43 46 48 46 50 60 68 78 85 91 102 112 118 122 123 121 120 118 117 119 120 121 124 129 140 143 149 158 154 152 157 163 171 181 195 218 255 262 274 304 307 303 294 291 305 307 285 275 273 270 267 264 263 265 265 266 269 270 271 274 278 281 282 282
322 299 320 334 323 341 346 327 349 339 316 329 335 305 297 302 333 347 345 337 353 6 355 349 347 348 358 8 11 14 21 33 45 50 52 55 56 58 61 66 73 82 90 98 106 114 121 125 125 122 117 119 122 121 123 127 129 133 136 139 140 133 126 125 126 131 139 156 181 214 227 232 249 258 254 249 249 262 278 282 279 278 278 277 275 272 270 272 275 278 282 282 280 282 285 291 298
271 299 316 323 322 334 322 305 335 336 315 329 328 301 287 267 282 332 335 315 339 2 358 347 339 339 353 4 9 13 22 39 49 53 57 58 60 63 65 66 68 71 75 80 88 98 110 118 120 117 117 121 122 120 120 124 126 128 130 126 124 121 118 118 117 112 109 112 118 139 188 217 232 230 219 212 216 224 234 251 269 280 286 285 285 279 275 279 285 290 293 285 281 292 298 312 327
283 322 307 314 343 328 296 277 344 336 310 324 328 308 292 262 236 259 307 318 349 354 6 357 334 331 345 360 8 10 20 41 50 53 57 58 59 62 64 64 64 64 65 66 71 81 92 104 109 110 114 116 116 116 116 116 117 120 122 120 119 120 119 116 114 111 110 112 112 110 113 117 132 156 145 142 151 153 163 184 183 193 239 249 256 253 247 257 268 275 281 199 156 317 325 341 346
58 358 318 317 349 336 306 26 343 321 294 310 318 302 284 254 225 220 237 314 31 341 12 4 336 331 337 349 1 10 22 33 43 53 57 58 59 60 60 61 62 64 65 63 64 69 74 82 94 104 109 110 109 112 114 114 114 114 115 115 116 118 115 111 111 111 111 110 108 107 106 105 105 106 105 107 114 116 118 123 124 126 134 128 131 157 159 149 138 135 127 120 127 120 25 9 6
90 60 347 308 320 311 289 308 321 309 274 315 325 303 261 213 231 233 191 171 175 87 51 335 331 336 333 343 356 11 28 32 41 51 55 56 57 57 57 57 59 61 61 61 59 61 64 68 76 88 98 104 108 113 116 118 119 118 117 115 114 113 112 114 114 112 110 108 105 104 105 106 107 106 106 106 106 105 105 106 108 109 112 110 110 116 112 105 105 111 109 103 100 81 58 38 24
133 146 205 282 287 276 286 307 316 312 296 50 353 320 318 167 221 244 197 190 207 151 183 274 312 333 327 339 352 2 19 32 46 51 53 55 56 57 57 56 57 57 57 57 57 57 60 64 69 76 83 89 96 106 114 120 125 125 126 125 123 120 119 117 114 111 107 105 101 97 96 99 101 102 103 104 104 104 106 106 109 111 112 109 100 94 91 87 82 80 73 63 54 49 40 29 25
309 123 186 259 263 260 291 317 317 324 324 356 2 327 319 250 207 219 209 213 213 182 210 247 269 306 315 333 341 345 0 27 50 54 56 57 57 57 57 56 55 54 55 56 56 57 58 61 65 70 76 80 85 93 102 112 120 123 125 126 124 121 116 109 104 103 101 100 99 97 94 92 92 92 92 92 92 93 95 97 100 100 98 93 87 81 77 67 55 52 47 41 39 36 25 14 16
322 97 194 253 248 252 262 300 299 321 305 289 65 344 290 289 191 181 200 226 231 215 220 229 234 264 293 313 321 331 353 29 51 56 58 59 58 57 56 57 56 55 56 57 57 58 57 58 60 64 70 75 79 83 90 97 103 107 110 111 109 106 103 101 99 98 97 97 98 97 95 92 91 90 89 88 86 86 86 86 86 84 82 80 77 76 72 67 61 58 55 50 47 43 38 30 24
351 73 290 260 248 243 198 247 279 308 300 279 90 19 283 290 95 150 195 231 243 233 223 221 226 239 255 270 286 304 343 33 52 55 58 58 59 59 58 58 58 57 58 57 58 58 57 58 59 63 67 70 73 76 79 83 88 92 95 97 98 97 97 98 99 98 97 97 96 95 94 92 90 88 87 87 85 83 82 82 82 80 78 75 73 72 70 67 65 62 58 55 53 49 46 43 38
337 332 276 225 204 216 201 266 291 271 278 312 53 0 319 313 212 166 200 236 243 232 216 215 219 224 231 240 253 263 280 6 39 50 55 56 56 57 57 57 56 56 57 58 60 60 61 60 59 62 67 69 71 72 73 76 79 83 86 88 91 93 94 95 95 96 95 95 93 92 91 89 88 85 84 83 81 80 78 77 77 75 73 71 68 66 64 61 58 55 54 51 49 48 45 42 40
311 294 271 229 201 205 216 279 289 260 265 114 89 26 329 316 291 172 196 224 233 215 195 202 211 218 224 226 233 240 242 266 319 15 40 47 51 53 51 49 49 49 52 56 60 63 64 64 63 64 69 71 72 73 75 76 78 81 84 86 88 90 93 93 93 92 91 91 90 88 87 85 84 82 80 78 77 76 75 73 73 71 69 67 64 61 58 56 53 51 49 48 46 44 43 40 38
283 265 281 271 227 209 216 218 218 286 345 116 126 23 259 258 298 184 200 208 224 206 188 196 206 213 217 219 224 228 233 244 253 283 324 17 36 44 46 43 41 41 44 49 54 60 64 66 66 67 73 75 75 76 78 80 82 84 86 88 89 90 93 94 93 92 91 89 87 87 87 85 83 82 79 77 74 72 71 70 68 67 66 64 62 59 57 55 52 50 47 45 43 41 39 38 35
301 287 303 309 313 312 307 326 255 300 353 129 132 358 256 242 274 279 220 202 209 207 193 195 202 207 210 214 220 224 230 237 241 255 272 291 327 15 40 41 40 38 38 41 45 52 59 65 67 70 76 77 76 77 78 80 83 84 86 88 89 90 91 92 92 92 91 90 89 88 88 86 84 82 80 78 75 73 71 69 67 65 63 61 59 58 56 54 51 49 45 43 41 39 36 33 31
357 341 331 339 354 354 345 341 315 300 318 132 129 332 278 269 280 261 233 209 200 202 193 192 198 203 210 215 219 225 229 233 237 242 247 254 253 246 275 40 43 41 40 39 39 44 50 59 63 66 72 75 77 76 76 78 79 81 82 83 85 87 87 89 89 89 89 89 89 88 87 85 82 79 77 75 73 72 70 68 66 64 62 59 56 54 51 49 47 44 41 39 37 34 32 28 26
7 329 316 351 15 348 333 336 322 313 313 299 224 200 278 313 23 118 146 348 216 212 208 202 203 203 210 216 219 225 228 231 235 236 235 236 231 230 232 224 50 45 46 43 40 42 45 52 58 59 63 68 71 72 72 73 74 75 77 77 79 80 80 82 83 84 84 84 83 82 81 81 79 76 73 71 69 67 65 64 61 59 57 54 51 48 45 42 39 38 34 32 30 27 25 22 19
99 252 281 350 11 326 314 355 322 309 309 292 260 248 269 281 55 115 223 324 211 217 220 218 216 211 212 218 223 227 229 230 232 233 233 230 223 219 219 220 220 84 56 49 44 41 42 46 51 54 55 55 56 60 64 65 67 68 69 71 72 72 73 75 76 78 78 78 77 76 75 74 74 73 71 68 65 62 59 57 54 51 49 45 43 39 37 34 31 29 27 25 23 21 18 16 14
269 302 4 23 352 311 302 76 129 265 279 281 284 300 291 267 208 183 214 222 203 203 218 222 221 218 218 222 228 231 231 230 231 231 231 230 228 223 217 222 227 228 234 60 53 44 40 34 42 49 50 49 45 40 41 48 56 59 59 61 62 64 66 68 72 75 76 77 75 73 73 71 70 69 68 65 62 59 56 52 49 46 42 39 36 32 30 27 24 22 20 19 17 14 13 10 8
298 326 90 109 179 79 318 294 299 279 279 289 308 302 301 305 336 143 171 208 212 204 208 215 218 221 224 227 231 234 235 234 233 233 232 230 230 228 224 228 232 238 247 251 272 331 8 336 324 1 30 38 36 30 26 28 38 48 51 52 51 53 56 59 64 69 73 77 74 72 70 68 67 65 61 59 56 51 49 46 43 40 36 33 30 26 23 19 18 16 13 12 10 8 6 5 3
20 84 122 146 291 334 352 307 317 320 305 295 292 302 288 263 275 86 157 192 213 208 202 211 221 222 226 231 233 235 236 235 235 234 234 233 233 233 233 235 239 243 250 256 262 265 270 282 272 270 286 310 338 355 5 7 12 20 31 40 40 36 36 39 45 51 62 72 72 69 65 60 58 53 48 45 42 39 36 34 33 31 28 26 22 20 17 13 11 10 8 6 4 2 0 360 358
75 134 148 18 340 318 334 339 300 294 305 305 315 327 289 214 203 288 274 96 193 200 198 216 227 226 229 236 239 239 236 234 235 237 239 239 240 242 241 243 247 251 255 257 260 264 267 268 266 263 265 269 278 294 311 327 336 339 340 347 355 359 359 0 4 7 12 22 31 41 40 40 40 35 32 29 27 27 23 21 21 19 18 17 14 12 9 7 6 4 3 1 359 358 357 356 354
252 209 204 93 135 279 290 221 228 293 295 300 311 304 290 253 127 246 261 30 49 233 227 234 238 239 242 245 248 248 245 241 240 241 244 245 246 249 250 250 250 251 256 261 262 263 265 267 267 266 266 266 266 270 280 290 299 307 310 311 312 314 315 316 320 321 322 320 315 322 339 351 5 11 11 11 13 13 12 10 8 8 8 7 5 4 1 359 359 357 356 356 354 354 354 352 351
295 276 274 334 286 307 295 272 75 38 268 280 307 293 291 315 73 272 281 10 0 297 279 271 270 270 269 267 265 261 257 252 248 247 248 248 249 251 252 254 253 253 258 263 264 262 264 267 267 266 267 268 268 267 269 273 280 287 293 298 299 299 298 296 298 299 298 300 298 298 306 316 329 341 347 351 353 355 358 358 357 358 359 358 357 357 355 353 352 351 351 351 350 350 349 348 347